Погода в Эстеракере

Швеция     59°07′29″N   15°59′20″E
темп.,
°C
ветер,
м/с
пор.,
м/с
влажн.,
%
обл.,
%
осадки,
мм/ч
давл.,
гПа
погр.,
м
13 июня, вс
вс1323:00+11з119110 0.3 100511
02:00+9зсз22926 0.3 100828
05:00+10с289273 0.0 1010212
08:00+14ссв36595 0.0 1013672
11:00+16с33445 0.0 10151045
14:00+20сз253341 0.0 10152213
17:00+22з243071 0.0 10152485
20:00+19зюз25435 0.0 1015203
14 июня, пн
пн1423:00+13юз256467 0.0 101692
02:00+10ююз396999 0.0 1015183
05:00+10ююз31086100 0.0 1014275
08:00+17юз4970100 0.0 1014602
11:00+22юз6953100 0.0 10121294
14:00+21юз71158100 0.0 10101433
17:00+19юз81576100 0.3 10081388
20:00+17зюз71473100 0.6 10071534
15 июня, вт
вт1523:00+15зюз613622 0.0 10081049
02:00+12зюз513710 0.0 1009760
05:00+11зюз511710 0.0 1010624
08:00+15з58525 0.0 10111200
11:00+18з58395 0.0 10111821
14:00+20зсз58335 0.0 10122113
17:00+20з453485 0.0 10122086
20:00+18зсз36455 0.0 1013540
16 июня, ср
ср1623:00+12юз2868100 0.0 1015166
02:00+9з11847 0.0 101715
05:00+9юз228335 0.0 101839
08:00+15ю235524 0.0 1019516
11:00+20ююз343816 0.0 10181520
14:00+23зюз452672 0.0 10181751
17:00+23юз3425100 0.0 10181615
20:00+19зсз2348100 0.0 101897
17 июня, чт
чт1723:00+13юз00646 0.0 102011
02:00+11з226918 0.0 102020
05:00+11зюз12715 0.0 102024
08:00+18юз24470 0.0 1021448
11:00+23ююз35335 0.0 10201289
14:00+26ююз35245 0.0 10191806
17:00+27ююз35205 0.0 10182111
20:00+22ююв4105368 0.0 1018445